CZ-6A DEB, 61827

Orbit data source: Space-Track

CZ-6A DEB, 61827 is space debris in LEO originally from a launch on Tue, 06 Aug 2024 UTC launched from the Taiyaun Space Center, China (TSC). Debris objects in space refer to the collection of defunct objects orbiting the Earth. Examples of debris include non-operational satellites, rocket bodies, and fragments generated from explosions, collisions, or faulty payload assembly.

Loading next visibility...
Identifier
61827, 2024-140ACT
Orbit
LEO
Country
Flag of CNCN / PRC
Related business
Manufacturer
SAST
Mission
Spacecraft
Bus & Motor
Unknown
Mass
Unknown
Launch date (UTC)
2024-08-06 (2 years ago)
Launch vehicle
Unknown
Launch site
Taiyaun Space Center, China (TSC)
Object type
Payload
Rocket body
Debris
Shape & HBR
Unknown shape, 0.1 m
Radar Cross Section
Medium (>0.1 m² and <1 m²)

Expand to show TLE details & history
Last TLE update: 15 hours ago

TLE from 15 hours ago
0 CZ-6A DEB
1 61827U 24140ACT 26171.24289480  .00002715  00000-0  14352-2 0  9991
2 61827  88.8553 264.6248 0102972 221.0531 138.2873 14.10861417 91072
Epoch: 2026-06-20T05:49Z
TLE epoch observation values (Epoch: 2026-06-20T05:49:46.110Z)
Latitude
-0.00004°
Longitude
-91.27765°
Altitude
915.423 km
Speed
7.366 km/s
True Right ascension
17h 38m 29s
True Declination
0° 00' 00"
Sunlit
Object was in full shadow at epoch
Visualization orbit readout
Latitude
Unknown
Longitude
Unknown
Altitude
Unknown
Speed
Unknown
Apparent Right ascension
Unknown
Apparent Declination
Unknown
Sunlit
N/A
Visualization observer readout
Local Sidereal Time
07:21:11
Azimuth
Unknown
Elevation
Unknown
Doppler factor
Unknown
Orbital elements
Apogee altitude
927.855 km
Perigee altitude
778.926 km
Semi-major axis
7,231.527 km
Eccentricity
0.0103
Inclination
88.8553°
RAAN
264.6248°
Arg. of periapsis
221.0531°
True anomaly
139.06495°
Mean anomaly
138.2873°
Eccentric anomaly
138.67687°
Mean motion
3.52938 °/min
Orbital period
102 mins
BSTAR
0.0014352
Loading maneuver chart data...
Computing Atmospheric mass density...
Loading historical data...
Loading historical data...
Loading historical data...
Loading historical data...
Loading historical data...
Loading historical data...
Loading historical data...

Documentation

Showing up to 5 results
|